| time (UTC) | temp C | wind direction | speed KPH | gust KPH | rain 1hr cm | rain 24hr cm | rain mn cm | humidity % | barometer mb |
| 20260507064724 | 10 | 40 | 8.0 | 14.5 | 0.00 | 0.00 | 0.00 | 31 | 1015.8 |
| 20260507062724 | 9 | 40 | 9.7 | 19.3 | 0.00 | 0.00 | 0.00 | 33 | 1015.9 |
| 20260507060724 | 6 | 30 | 6.4 | 12.9 | 0.00 | 0.00 | 0.00 | 42 | 1015.9 |
| 20260507054724 | 6 | 25 | 6.4 | 11.3 | 0.00 | 0.00 | 0.00 | 39 | 1015.9 |
| 20260507052724 | 6 | 21 | 6.4 | 12.9 | 0.00 | 0.00 | 0.00 | 41 | 1015.9 |
| 20260507050723 | 6 | 37 | 6.4 | 16.1 | 0.00 | 0.00 | 0.00 | 42 | 1015.8 |
| 20260507044724 | 5 | 32 | 8.0 | 14.5 | 0.00 | 0.00 | 0.00 | 43 | 1015.7 |
| 20260507042724 | 5 | 34 | 9.7 | 17.7 | 0.00 | 0.00 | 0.00 | 46 | 1015.8 |
| 20260507040724 | 3 | 34 | 11.3 | 20.9 | 0.00 | 0.00 | 0.00 | 48 | 1015.8 |
| 20260507032724 | 2 | 24 | 11.3 | 17.7 | 0.00 | 0.00 | 0.00 | 50 | 1015.8 |
| 20260507030724 | 2 | 24 | 12.9 | 19.3 | 0.00 | 0.00 | 0.00 | 51 | 1015.6 |
| 20260507024723 | 2 | 23 | 11.3 | 19.3 | 0.00 | 0.00 | 0.00 | 51 | 1015.6 |
| 20260507022723 | 2 | 24 | 11.3 | 17.7 | 0.00 | 0.00 | 0.00 | 49 | 1015.6 |
| 20260507020723 | 2 | 21 | 12.9 | 20.9 | 0.00 | 0.00 | 0.00 | 48 | 1015.6 |
| 20260507014724 | 2 | 22 | 11.3 | 20.9 | 0.00 | 0.00 | 0.00 | 47 | 1015.5 |
| 20260507012723 | 2 | 20 | 12.9 | 20.9 | 0.00 | 0.00 | 0.00 | 47 | 1015.5 |
| 20260507010723 | 2 | 17 | 11.3 | 19.3 | 0.00 | 0.00 | 0.00 | 48 | 1015.5 |
| 20260507004723 | 2 | 23 | 12.9 | 19.3 | 0.00 | 0.00 | 0.00 | 49 | 1015.4 |
| 20260507002723 | 2 | 11 | 11.3 | 17.7 | 0.00 | 0.00 | 0.00 | 48 | 1015.3 |
| 20260507000723 | 2 | 10 | 11.3 | 17.7 | 0.00 | 0.00 | 0.00 | 48 | 1015.4 |
| 20260506234723 | 2 | 6 | 11.3 | 17.7 | 0.00 | 0.00 | 0.00 | 47 | 1015.3 |
| 20260506232723 | 2 | 8 | 11.3 | 17.7 | 0.00 | 0.00 | 0.00 | 46 | 1015.2 |
| 20260506230724 | 2 | 2 | 11.3 | 17.7 | 0.00 | 0.00 | 0.00 | 45 | 1015.2 |
| 20260506224722 | 3 | 3 | 9.7 | 16.1 | 0.00 | 0.00 | 0.00 | 43 | 1015.2 |
| 20260506222723 | 3 | 1 | 9.7 | 16.1 | 0.00 | 0.00 | 0.00 | 43 | 1015.2 |
| 20260506220723 | 3 | 353 | 9.7 | 17.7 | 0.00 | 0.00 | 0.00 | 44 | 1015.0 |
| 20260506214723 | 3 | 342 | 9.7 | 16.1 | 0.00 | 0.00 | 0.00 | 43 | 1014.9 |
| 20260506212723 | 3 | 327 | 9.7 | 14.5 | 0.00 | 0.00 | 0.00 | 41 | 1014.7 |
| 20260506210722 | 3 | 331 | 9.7 | 14.5 | 0.00 | 0.00 | 0.00 | 41 | 1014.7 |
| 20260506204722 | 3 | 325 | 9.7 | 14.5 | 0.00 | 0.00 | 0.00 | 40 | 1014.6 |
| 20260506202722 | 3 | 325 | 9.7 | 14.5 | 0.00 | 0.00 | 0.00 | 38 | 1014.6 |
| 20260506200722 | 4 | 321 | 9.7 | 12.9 | 0.00 | 0.00 | 0.00 | 37 | 1014.6 |
| 20260506194722 | 5 | 330 | 8.0 | 11.3 | 0.00 | 0.00 | 0.00 | 38 | 1014.4 |
| 20260506192722 | 5 | 330 | 9.7 | 11.3 | 0.00 | 0.00 | 0.00 | 47 | 1014.3 |
| 20260506190722 | 5 | 324 | 4.8 | 8.0 | 0.00 | 0.00 | 0.00 | 63 | 1014.3 |
| 20260506184722 | 5 | 328 | 3.2 | 9.7 | 0.00 | 0.00 | 0.00 | 63 | 1014.2 |
| 20260506182723 | 7 | 189 | 1.6 | 4.8 | 0.00 | 0.00 | 0.00 | 57 | 1014.1 |
| 20260506180722 | 7 | 193 | 4.8 | 11.3 | 0.00 | 0.00 | 0.00 | 56 | 1014.0 |
| 20260506174722 | 7 | 182 | 6.4 | 14.5 | 0.00 | 0.00 | 0.00 | 56 | 1014.0 |
| 20260506172721 | 7 | 183 | 8.0 | 14.5 | 0.00 | 0.00 | 0.00 | 55 | 1013.9 |
| 20260506164720 | 8 | 187 | 8.0 | 16.1 | 0.00 | 0.00 | 0.00 | 54 | 1013.6 |
| 20260506162721 | 8 | 178 | 8.0 | 19.3 | 0.00 | 0.00 | 0.00 | 51 | 1013.6 |
| 20260506160721 | 9 | 187 | 9.7 | 20.9 | 0.00 | 0.00 | 0.00 | 49 | 1013.5 |
| 20260506152722 | 10 | 188 | 14.5 | 27.4 | 0.00 | 0.00 | 0.00 | 42 | 1013.4 |
| 20260506150721 | 10 | 175 | 12.9 | 27.4 | 0.00 | 0.00 | 0.00 | 44 | 1013.4 |
| 20260506144721 | 10 | 183 | 14.5 | 27.4 | 0.00 | 0.00 | 0.00 | 41 | 1013.6 |
| 20260506142721 | 11 | 200 | 8.0 | 19.3 | 0.00 | 0.00 | 0.00 | 40 | 1013.5 |
| 20260506140720 | 11 | 200 | 11.3 | 25.7 | 0.00 | 0.00 | 0.00 | 42 | 1013.5 |
| 20260506134720 | 10 | 178 | 12.9 | 24.1 | 0.00 | 0.00 | 0.00 | 40 | 1013.5 |
| 20260506132720 | 11 | 181 | 14.5 | 25.7 | 0.00 | 0.00 | 0.00 | 37 | 1013.5 |
| 20260506130720 | 11 | 162 | 8.0 | 19.3 | 0.00 | 0.00 | 0.00 | 38 | 1013.3 |
| 20260506124720 | 10 | 237 | 3.2 | 9.7 | 0.00 | 0.00 | 0.00 | 31 | 1013.7 |
| 20260506122720 | 12 | 286 | 9.7 | 22.5 | 0.00 | 0.00 | 0.00 | 25 | 1013.4 |
| 20260506120720 | 10 | 293 | 8.0 | 19.3 | 0.00 | 0.00 | 0.00 | 34 | 1013.6 |
| 20260506114721 | 10 | 283 | 9.7 | 17.7 | 0.00 | 0.00 | 0.00 | 31 | 1013.6 |
| 20260506112721 | 12 | 266 | 9.7 | 22.5 | 0.00 | 0.00 | 0.00 | 28 | 1013.4 |
| 20260506110721 | 12 | 259 | 9.7 | 17.7 | 0.00 | 0.00 | 0.00 | 27 | 1013.4 |
| 20260506104721 | 9 | 263 | 12.9 | 24.1 | 0.00 | 0.00 | 0.00 | 32 | 1013.5 |
| 20260506102721 | 11 | 276 | 12.9 | 24.1 | 0.00 | 0.00 | 0.00 | 26 | 1013.3 |
| 20260506100721 | 10 | 274 | 9.7 | 20.9 | 0.00 | 0.00 | 0.00 | 29 | 1013.4 |
| 20260506094721 | 11 | 232 | 12.9 | 22.5 | 0.00 | 0.00 | 0.00 | 32 | 1013.2 |
| 20260506092721 | 10 | 267 | 12.9 | 27.4 | 0.00 | 0.00 | 0.00 | 29 | 1013.1 |
| 20260506090721 | 10 | 257 | 12.9 | 24.1 | 0.00 | 0.00 | 0.00 | 38 | 1013.1 |
| 20260506084721 | 10 | 275 | 14.5 | 24.1 | 0.00 | 0.00 | 0.00 | 32 | 1013.0 |
| 20260506082721 | 9 | 267 | 14.5 | 24.1 | 0.00 | 0.00 | 0.00 | 37 | 1013.0 |
| 20260506080721 | 8 | 276 | 12.9 | 27.4 | 0.00 | 0.00 | 0.00 | 37 | 1012.9 |
| 20260506072721 | 8 | 276 | 11.3 | 25.7 | 0.00 | 0.00 | 0.00 | 45 | 1012.7 |
| 20260506070721 | 7 | 283 | 9.7 | 20.9 | 0.00 | 0.00 | 0.00 | 50 | 1012.6 |